CZ-2F DEB

Last updated on Tue Apr 30 2024 00:02:04 GMT+0000 (Coordinated Universal Time)

1 59593U 24078C 24117.16437429 .06643541 69424-5 71055-2 0 9992 2 59593 41.6118 40.5394 0251395 137.5527 224.6445 15.69435837 103

Satellite not in orbit